When you browse on this site, cookies collect data to enhance your experience and personalize the content and advertising you see.
Visit our Privacy Policy to learn more. By continuing to use the site, you agree to this use of cookies and data.
  • In Belgien
  • Länderverzeichnis
  • Für 7 Tage
  • Wassertemperatur
  • Satellitenkarten
  • Wetterkarte
  • Widgets
  • user-avatar
    Anmelden

    Stündliche Wetter Sewan

    Heute, 18 Juni, Dienstag

    Zeit Temperatur Niederschläge Wind Luftdruck Luftfeuchtigkeit
    00:00 +17°C° 0.5 mm 2 m/S 640 mmHg 72%
    01:00 +17°C° 0.1 mm 2 m/S 640 mmHg 72%
    02:00 +16°C° 0.1 mm 1 m/S 640 mmHg 72%
    03:00 +16°C° 0.1 mm 1 m/S 640 mmHg 72%
    04:00 +18°C° 0 mm 1 m/S 640 mmHg 70%
    05:00 +19°C° 0 mm 1 m/S 640 mmHg 69%
    06:00 +20°C° 0 mm 1 m/S 641 mmHg 68%
    07:00 +21°C° 0.1 mm 1 m/S 641 mmHg 63%
    08:00 +23°C° 0.1 mm 1 m/S 641 mmHg 57%
    09:00 +24°C° 0.1 mm 2 m/S 642 mmHg 52%
    10:00 +25°C° 0.1 mm 2 m/S 642 mmHg 47%
    11:00 +26°C° 0.1 mm 2 m/S 642 mmHg 43%
    12:00 +27°C° 0.1 mm 2 m/S 641 mmHg 38%
    13:00 +28°C° 0 mm 2 m/S 641 mmHg 37%
    14:00 +28°C° 0 mm 2 m/S 641 mmHg 36%
    15:00 +28°C° 0 mm 2 m/S 641 mmHg 35%
    16:00 +27°C° 0.1 mm 2 m/S 641 mmHg 40%
    17:00 +26°C° 0.1 mm 2 m/S 640 mmHg 45%
    18:00 +25°C° 0.1 mm 2 m/S 640 mmHg 50%
    19:00 +23°C° 0.3 mm 2 m/S 640 mmHg 55%
    20:00 +20°C° 0.3 mm 2 m/S 640 mmHg 59%
    21:00 +18°C° 0.3 mm 3 m/S 640 mmHg 63%
    22:00 +18°C° 0.1 mm 2 m/S 640 mmHg 64%
    23:00 +17°C° 0.1 mm 2 m/S 640 mmHg 65%

    Morgen, 19 Juni, Mittwoch

    Zeit Temperatur Niederschläge Wind Luftdruck Luftfeuchtigkeit
    00:00 +17°C° 0.1 mm 2 m/S 640 mmHg 66%
    01:00 +17°C° 0.1 mm 2 m/S 640 mmHg 67%
    02:00 +16°C° 0.1 mm 2 m/S 639 mmHg 67%
    03:00 +16°C° 0.1 mm 2 m/S 639 mmHg 68%
    04:00 +18°C° 0 mm 1 m/S 640 mmHg 68%
    05:00 +18°C° 0 mm 1 m/S 640 mmHg 68%
    06:00 +19°C° 0 mm 1 m/S 640 mmHg 68%
    07:00 +21°C° 0.3 mm 1 m/S 641 mmHg 63%
    08:00 +22°C° 0.3 mm 1 m/S 641 mmHg 58%
    09:00 +24°C° 0.3 mm 1 m/S 641 mmHg 54%
    10:00 +25°C° 0.5 mm 2 m/S 641 mmHg 50%
    11:00 +26°C° 0.5 mm 2 m/S 641 mmHg 47%
    12:00 +27°C° 0.5 mm 2 m/S 641 mmHg 44%
    13:00 +27°C° 0.4 mm 1 m/S 641 mmHg 43%
    14:00 +27°C° 0.4 mm 1 m/S 641 mmHg 43%
    15:00 +27°C° 0.4 mm 1 m/S 641 mmHg 43%
    16:00 +26°C° 0.3 mm 2 m/S 641 mmHg 47%
    17:00 +26°C° 0.3 mm 3 m/S 641 mmHg 51%
    18:00 +25°C° 0.3 mm 3 m/S 640 mmHg 56%
    19:00 +22°C° 0 mm 3 m/S 640 mmHg 57%
    20:00 +21°C° 0 mm 3 m/S 640 mmHg 58%
    21:00 +19°C° 0 mm 2 m/S 640 mmHg 59%
    22:00 +19°C° 0.1 mm 2 m/S 640 mmHg 61%
    23:00 +19°C° 0.1 mm 2 m/S 640 mmHg 63%

    übermorgen, 20 Juni, Donnerstag

    Zeit Temperatur Niederschläge Wind Luftdruck Luftfeuchtigkeit
    00:00 +18°C° 0.1 mm 2 m/S 640 mmHg 64%
    01:00 +18°C° 0 mm 2 m/S 640 mmHg 65%
    02:00 +17°C° 0 mm 2 m/S 640 mmHg 66%
    03:00 +16°C° 0 mm 1 m/S 639 mmHg 67%
    04:00 +18°C° 0 mm 1 m/S 640 mmHg 67%
    05:00 +19°C° 0 mm 1 m/S 640 mmHg 66%
    06:00 +20°C° 0 mm 1 m/S 640 mmHg 66%
    07:00 +21°C° 0.1 mm 1 m/S 640 mmHg 61%
    08:00 +23°C° 0.1 mm 1 m/S 641 mmHg 57%
    09:00 +24°C° 0.1 mm 2 m/S 641 mmHg 52%
    10:00 +25°C° 0.4 mm 2 m/S 641 mmHg 49%
    11:00 +26°C° 0.4 mm 2 m/S 641 mmHg 46%
    12:00 +27°C° 0.4 mm 2 m/S 641 mmHg 43%
    13:00 +28°C° 0.4 mm 2 m/S 641 mmHg 41%
    14:00 +28°C° 0.4 mm 2 m/S 640 mmHg 40%
    15:00 +28°C° 0.4 mm 3 m/S 640 mmHg 39%
    16:00 +28°C° 0.1 mm 3 m/S 640 mmHg 43%
    17:00 +27°C° 0.1 mm 3 m/S 640 mmHg 48%
    18:00 +26°C° 0.1 mm 3 m/S 640 mmHg 52%
    19:00 +24°C° 0.1 mm 3 m/S 640 mmHg 56%
    20:00 +21°C° 0.1 mm 3 m/S 639 mmHg 59%
    21:00 +19°C° 0.1 mm 3 m/S 639 mmHg 62%
    22:00 +19°C° 0.2 mm 2 m/S 639 mmHg 64%
    23:00 +18°C° 0.2 mm 2 m/S 639 mmHg 66%

    21 Juni, Freitag

    Zeit Temperatur Niederschläge Wind Luftdruck Luftfeuchtigkeit
    00:00 +18°C° 0.2 mm 2 m/S 639 mmHg 67%
    01:00 +17°C° 0.5 mm 2 m/S 639 mmHg 70%
    02:00 +17°C° 0.5 mm 2 m/S 639 mmHg 72%
    03:00 +18°C° 0.5 mm 1 m/S 639 mmHg 74%
    04:00 +18°C° 0.3 mm 1 m/S 639 mmHg 73%
    05:00 +19°C° 0.3 mm 1 m/S 639 mmHg 72%
    06:00 +20°C° 0.3 mm 1 m/S 639 mmHg 70%
    07:00 +21°C° 0.3 mm 1 m/S 640 mmHg 66%
    08:00 +23°C° 0.3 mm 1 m/S 640 mmHg 61%
    09:00 +24°C° 0.3 mm 1 m/S 640 mmHg 56%
    10:00 +25°C° 0.6 mm 2 m/S 640 mmHg 52%
    11:00 +26°C° 0.6 mm 2 m/S 641 mmHg 48%
    12:00 +27°C° 0.6 mm 2 m/S 641 mmHg 44%
    13:00 +28°C° 0.6 mm 2 m/S 641 mmHg 44%
    14:00 +28°C° 0.6 mm 2 m/S 640 mmHg 44%
    15:00 +28°C° 0.6 mm 2 m/S 640 mmHg 44%
    16:00 +26°C° 0.8 mm 2 m/S 640 mmHg 53%
    17:00 +24°C° 0.8 mm 2 m/S 640 mmHg 62%
    18:00 +21°C° 0.8 mm 3 m/S 640 mmHg 70%
    19:00 +20°C° 0.5 mm 2 m/S 640 mmHg 71%
    20:00 +19°C° 0.5 mm 2 m/S 640 mmHg 72%
    21:00 +18°C° 0.5 mm 2 m/S 641 mmHg 72%
    22:00 +17°C° 0.1 mm 2 m/S 640 mmHg 72%
    23:00 +17°C° 0.1 mm 2 m/S 640 mmHg 72%

    22 Juni, Samstag

    Zeit Temperatur Niederschläge Wind Luftdruck Luftfeuchtigkeit
    00:00 +16°C° 0.1 mm 2 m/S 640 mmHg 72%
    01:00 +16°C° 0 mm 2 m/S 640 mmHg 72%
    02:00 +16°C° 0 mm 2 m/S 640 mmHg 72%
    03:00 +16°C° 0 mm 2 m/S 640 mmHg 71%
    04:00 +16°C° 0 mm 2 m/S 640 mmHg 71%
    05:00 +18°C° 0 mm 1 m/S 641 mmHg 71%
    06:00 +19°C° 0 mm 1 m/S 641 mmHg 71%
    07:00 +21°C° 0 mm 1 m/S 641 mmHg 66%
    08:00 +21°C° 0 mm 2 m/S 642 mmHg 60%
    09:00 +24°C° 0 mm 2 m/S 642 mmHg 55%
    10:00 +25°C° 0.1 mm 2 m/S 643 mmHg 53%
    11:00 +26°C° 0.1 mm 2 m/S 643 mmHg 50%
    12:00 +27°C° 0.1 mm 2 m/S 643 mmHg 47%
    13:00 +28°C° 0.2 mm 2 m/S 643 mmHg 46%
    14:00 +28°C° 0.2 mm 2 m/S 643 mmHg 44%
    15:00 +28°C° 0.2 mm 2 m/S 643 mmHg 42%
    16:00 +28°C° 0.1 mm 2 m/S 642 mmHg 46%
    17:00 +27°C° 0.1 mm 2 m/S 642 mmHg 50%
    18:00 +27°C° 0.1 mm 2 m/S 642 mmHg 54%
    19:00 +25°C° 0.1 mm 2 m/S 642 mmHg 58%
    20:00 +22°C° 0.1 mm 3 m/S 642 mmHg 62%
    21:00 +20°C° 0.1 mm 3 m/S 642 mmHg 66%
    22:00 +20°C° 0.2 mm 3 m/S 642 mmHg 67%
    23:00 +19°C° 0.2 mm 3 m/S 642 mmHg 68%

    23 Juni, Sonntag

    Zeit Temperatur Niederschläge Wind Luftdruck Luftfeuchtigkeit
    00:00 +18°C° 0.2 mm 3 m/S 642 mmHg 69%
    01:00 +18°C° 0.1 mm 2 m/S 642 mmHg 69%
    02:00 +18°C° 0.1 mm 2 m/S 642 mmHg 69%
    03:00 +18°C° 0.1 mm 2 m/S 641 mmHg 69%
    04:00 +18°C° 0 mm 2 m/S 642 mmHg 69%
    05:00 +19°C° 0 mm 2 m/S 642 mmHg 68%
    06:00 +20°C° 0 mm 2 m/S 642 mmHg 68%
    07:00 +21°C° 0.1 mm 2 m/S 643 mmHg 63%
    08:00 +24°C° 0.1 mm 1 m/S 643 mmHg 58%
    09:00 +26°C° 0.1 mm 1 m/S 644 mmHg 53%
    10:00 +27°C° 0.4 mm 2 m/S 644 mmHg 50%
    11:00 +28°C° 0.4 mm 2 m/S 644 mmHg 47%
    12:00 +29°C° 0.4 mm 2 m/S 644 mmHg 44%
    13:00 +29°C° 0.5 mm 2 m/S 644 mmHg 43%
    14:00 +29°C° 0.5 mm 2 m/S 643 mmHg 43%
    15:00 +30°C° 0.5 mm 2 m/S 643 mmHg 43%
    16:00 +29°C° 0.3 mm 3 m/S 643 mmHg 47%
    17:00 +28°C° 0.3 mm 3 m/S 643 mmHg 51%
    18:00 +27°C° 0.3 mm 4 m/S 642 mmHg 55%
    19:00 +26°C° 0.2 mm 4 m/S 642 mmHg 58%
    20:00 +23°C° 0.2 mm 4 m/S 642 mmHg 61%
    21:00 +21°C° 0.2 mm 4 m/S 642 mmHg 64%
    22:00 +20°C° 0.3 mm 4 m/S 642 mmHg 68%
    23:00 +19°C° 0.3 mm 3 m/S 642 mmHg 71%
    Mehr zeigen